This is the latest recevied weather packets stored in our database for station/object YN1ZSC-13. If no packets are shown the sender has not sent any weather packets the latest 10 day(s).
| Time | Temp. | Humidity | Pressure | Rain* | Wind** | Luminosity | Snow |
|---|---|---|---|---|---|---|---|
| 1777779068 | 26.67° C | 68% | 1012 hPa | 0 mm | - | - | - |
| 1777778467 | 27.22° C | 68% | 1012 hPa | 0 mm | - | - | - |
| 1777777867 | 27.78° C | 68% | 1012 hPa | 0.25 mm | - | - | - |
| 1777777266 | 28.33° C | 69% | 1012 hPa | 0 mm | - | - | - |
| 1777776665 | 25.56° C | 71% | 1012 hPa | 0.25 mm | - | - | - |
| 1777776065 | 25.56° C | 65% | 1011 hPa | 0.25 mm | - | - | - |
| 1777775464 | 26.11° C | 65% | 1011 hPa | 0 mm | - | - | - |
| 1777774864 | 26.67° C | 65% | 1010 hPa | 0 mm | - | - | - |
| 1777774263 | 26.67° C | 63% | 1010 hPa | 0 mm | - | - | - |
| 1777773663 | 27.22° C | 63% | 1010 hPa | 0 mm | - | - | - |
| 1777773061 | 27.78° C | 63% | 1010 hPa | 0 mm | - | - | - |
| 1777772461 | 28.33° C | 63% | 1010 hPa | 0 mm | - | - | - |
| 1777771860 | 28.33° C | 61% | 1010 hPa | 0 mm | - | - | - |
| 1777771260 | 28.33° C | 60% | 1010 hPa | 0 mm | - | - | - |
| 1777770659 | 28.33° C | 58% | 1010 hPa | 0 mm | - | - | - |
| 1777770059 | 28.89° C | 58% | 1010 hPa | 0 mm | - | - | - |
| 1777769458 | 28.89° C | 57% | 1010 hPa | 0 mm | - | - | - |
| 1777768857 | 28.89° C | 55% | 1009 hPa | 0 mm | - | - | - |
| 1777768257 | 28.89° C | 54% | 1009 hPa | 0 mm | - | - | - |
| 1777767656 | 29.44° C | 52% | 1008 hPa | 0 mm | - | - | - |
| 1777767055 | 29.44° C | 52% | 1008 hPa | 0 mm | - | - | - |
| 1777766455 | 30° C | 52% | 1008 hPa | 0 mm | - | - | - |
| 1777765854 | 30.56° C | 50% | 1008 hPa | 0 mm | - | - | - |
| 1777765253 | 31.11° C | 46% | 1008 hPa | 0 mm | - | - | - |
| 1777764653 | 31.67° C | 43% | 1008 hPa | 0 mm | - | - | - |
* Rain latest hour (hover to see other rain measurements)
** Current wind speed in m/s (hover to see current wind gust speed)